Find Starlink 30591

NORAD ID: 58088 Int'l Des: 2023-160 Owner: SPXS Country: US Constellation: starlink operational
LEOCIRCULAR

当前视图

正在加载3D地球...

About Starlink 30591

Starlink 30591 (NORAD 58088) is a starlink constellation satellite (v2 mini) launched Oct 18, 2023 by SPXS of US. It operates in LEO, CIRCULAR orbit with a mass of 730.00 kg.

即将过境

Passes for default location (London). Set your location on the main map for personalized predictions.

高度历史

Loading altitude history...

两行轨道根数

1 58088U 23160P 26237.28400086 .00001063 00000-0 48157-4 0 9998
2 58088 43.0018 205.4515 0001137 239.2962 120.7778 15.27574302158736
Epoch: Aug 25, 2026 • Age: 18 hours

当前状态

高度 491.9 km
远地点 / 近地点 N/A
速度 7.62 km/s
星下点 -34.10°S, 76.53°E
发射日期 Oct 18, 2023
运行时间 2.8 years
类型 internet

技术详情

分类 Payload
质量 730.00 kg
干质量 700.00 kg
总质量 730.00 kg
长度 0.30 m
直径 4.10 m
跨度 29.00 m
形状 Box + pan
制造商 SPXS
平台类型 Starlink V2M
阶段状态 In Orbit
所有者/国家 SPXS/US

Most Searched